Starlink 3146

operational
NORAD ID: 49414 Int'l Des: 2021-104 Owner: SPXS Country: US Constellation: starlink
LEOCIRCULAR

关于 Starlink 3146

正在加载描述...

实时位置

正在加载3D地球...

即将过境

高度历史

Altitude vs Time

uPlot chart will show altitude changes over time

两行轨道根数

1 49414U 21104G 26034.40324473 .00003156 00000-0 21631-3 0 9993
2 49414 53.2185 23.0370 0001462 85.7339 274.3820 15.08836265233458
Epoch: Feb 3, 2026 • Age: 22 hours

当前状态

高度 541.1 km
速度 7.60 km/s
星下点 32.12°N, 150.4°E
发射日期 Nov 13, 2021
运行时间 4.2 years
类型 internet

技术详情

分类 Payload
质量 290.00 kg
干质量 270.00 kg
总质量 290.00 kg
长度 0.20 m
直径 2.80 m
跨度 9.00 m
形状 Box + pan
制造商 SPXS
平台类型 Starlink
阶段状态 In Orbit
所有者/国家 SPXS/US

大型星座

Loading constellations...